Miscellaneous Local Product
Issued by NWS Hastings, NE

Home | Current Version | Previous Version | Text Only | Print | Product List | Glossary Off
Versions: 1 2 3 4 5 6 7 8 9 10 11 12 13 14 15 16 17 18 19 20 21 22 23 24 25 26 27 28 29 30 31 32 33 34 35 36 37 38 39 40 41 42 43 44 45 46 47 48 49 50

000
AXUS43 KGID 292002
MISGRI

GID CWA HOURLY WEATHER ROUNDUP
NATIONAL WEATHER SERVICE HASTINGS NE
300 PM CDT FRI AUG 29 2014

NOTE: "FAIR" INDICATES FEW OR NO CLOUDS BELOW 12,000 FEET WITH NO
SIGNIFICANT WEATHER AND/OR OBSTRUCTIONS TO VISIBILITY.

...SOUTH CENTRAL NEBRASKA...

CITY           SKY/WX    TMP DP  RH WIND       PRES   REMARKS
GRAND ISLAND   PTSUNNY   78  65  63 CALM      29.84S
HASTINGS       PTSUNNY   77  62  59 VRB3      29.83F
KEARNEY        MOSUNNY   81  63  54 CALM      29.84F
ORD            MOSUNNY   76  66  71 E8G16     29.83R
YORK           CLOUDY    68 N/A N/A SW7       29.83S
AURORA         CLOUDY    72  68  87 W5        29.83S
LEXINGTON      SUNNY     83  57  41 N10       29.86S
HOLDREGE       SUNNY     79  60  52 W7        29.86F
HEBRON         CLOUDY    71  64  79 S5        29.83F

...NEBRASKA PANHANDLE...

CITY           SKY/WX    TMP DP  RH WIND       PRES   REMARKS
CHADRON        MOSUNNY   74  57  55 NE14G23   30.02R
ALLIANCE       MOSUNNY   78  53  41 N20       30.01S
SCOTTSBLUFF    MOSUNNY   81  52  36 VRB7      30.03S
SIDNEY         MOSUNNY   83  52  34 N13       30.03S

...WESTERN AND NORTH CENTRAL NEBRASKA...

CITY           SKY/WX    TMP DP  RH WIND       PRES   REMARKS
VALENTINE      SUNNY     84  60  44 NW17G24   29.88S
AINSWORTH      SUNNY     81  60  48 N7        29.87S
ONEILL         PTSUNNY   70  68  95 N6        29.85F THUNDER
BROKEN BOW     MOSUNNY   83  58  42 N15G21    29.85F
IMPERIAL       MOSUNNY   84  53  34 N14       29.94S
NORTH PLATTE   SUNNY     85  54  34 NE7G17    29.88F
MCCOOK         SUNNY     86  54  33 N12       29.89S

...EASTERN NEBRASKA...

CITY           SKY/WX    TMP DP  RH WIND       PRES   REMARKS
NORFOLK        CLOUDY    73  67  81 NW7       29.81S
SO SIOUX CITY  CLOUDY    74  67  78 CALM      29.78F
TEKAMAH        CLOUDY    78  71  79 S7        29.77F
COLUMBUS       CLOUDY    70  64  83 W7        29.82S
ALBION         CLOUDY    72  66  81 NW6       29.83S THUNDER
OMAHA EPPLEY   PTSUNNY   78  67  68 S10       29.78F
OFFUTT AFB     PTSUNNY   77  73  88 SE10      29.78F
MILLARD        PTSUNNY   78  68  71 SW6       29.77F
LINCOLN        CLOUDY    75  65  70 SW13      29.79F
NEBRASKA CITY  CLOUDY    74  70  86 S7        29.81F
BEATRICE       CLOUDY    73  67  82 S9        29.80F
FALLS CITY     MOSUNNY   83  68  60 S7        29.80F

...NORTHERN KANSAS...

CITY           SKY/WX    TMP DP  RH WIND       PRES   REMARKS
GOODLAND       SUNNY     84  50  30 N21G26    29.97S
HILL CITY      SUNNY     84  55  36 N10       29.88F
NORTON         CLEAR     86  45  23 NW8       29.86F
PHILLIPSBURG   MOSUNNY   82  57  42 W5        29.86S
SMITH CENTER   SUNNY     79  64  61 W3        29.85F
BELOIT         MOSUNNY   81  66  61 CALM      29.82F
HAYS           MOSUNNY   82  61  47 W7G17     29.87F
RUSSELL        SUNNY     83  59  44 NW8       29.84F
CONCORDIA      CLOUDY    77  69  76 W3        29.83F
SALINA         PTSUNNY   88  63  43 SW12      29.82F
TOPEKA         PTSUNNY   85  65  51 S10       29.81F



USA.gov is the U.S. government's official web portal to all federal, state and local government web resources and services.